Time,TemperatureF,DewpointF,PressureIn,WindDirection,WindDirectionDegrees,WindSpeedMPH,WindSpeedGustMPH,Humidity,HourlyPrecipIn,Conditions,Clouds,dailyrainin,SoftwareType,DateUTC
2013-03-27 00:02:00,27.5,13.5,28.15,East,90,9.0,13.0,55,-99.99,,,-99.99,meteohub,2013-03-26 23:02:00,
2013-03-27 00:17:00,27.5,13.5,28.15,ENE,68,8.0,14.0,55,-99.99,,,-99.99,meteohub,2013-03-26 23:17:00,
2013-03-27 00:32:00,27.5,14.7,28.15,North,0,5.0,8.0,58,-99.99,,,-99.99,meteohub,2013-03-26 23:32:00,
2013-03-27 00:47:00,27.1,14.7,28.15,NNE,23,1.0,5.0,59,-99.99,,,-99.99,meteohub,2013-03-26 23:47:00,
2013-03-27 01:02:00,27.0,14.5,28.14,NE,45,5.0,5.0,59,-99.99,,,-99.99,meteohub,2013-03-27 00:02:00,
2013-03-27 01:17:00,26.8,14.7,28.14,NNE,23,2.0,5.0,60,-99.99,,,-99.99,meteohub,2013-03-27 00:17:00,
2013-03-27 01:32:00,26.8,14.4,28.14,ENE,68,4.0,9.0,59,-99.99,,,-99.99,meteohub,2013-03-27 00:32:00,
2013-03-27 01:47:00,26.8,14.7,28.14,ENE,68,4.0,7.0,60,-99.99,,,-99.99,meteohub,2013-03-27 00:47:00,
2013-03-27 02:02:00,26.8,15.1,28.14,SE,135,4.0,4.0,61,-99.99,,,-99.99,meteohub,2013-03-27 01:02:00,
2013-03-27 02:17:00,26.8,15.1,28.14,NW,315,2.0,4.0,61,-99.99,,,-99.99,meteohub,2013-03-27 01:17:00,
2013-03-27 02:32:00,26.4,15.1,28.14,NNE,23,4.0,4.0,62,-99.99,,,-99.99,meteohub,2013-03-27 01:32:00,
2013-03-27 02:47:00,26.4,15.1,28.13,NNW,338,3.0,5.0,62,-99.99,,,-99.99,meteohub,2013-03-27 01:47:00,
2013-03-27 03:02:00,26.2,15.4,28.13,NW,315,2.0,4.0,63,-99.99,,,-99.99,meteohub,2013-03-27 02:02:00,
2013-03-27 03:17:00,26.1,15.6,28.12,ENE,68,9.0,9.0,64,-99.99,,,-99.99,meteohub,2013-03-27 02:17:00,
2013-03-27 03:32:00,25.7,15.3,28.12,East,90,7.0,11.0,64,-99.99,,,-99.99,meteohub,2013-03-27 02:32:00,
2013-03-27 03:47:00,25.7,15.6,28.12,NW,315,11.0,11.0,65,-99.99,,,-99.99,meteohub,2013-03-27 02:47:00,
2013-03-27 04:02:00,25.7,15.6,28.12,NE,45,9.0,11.0,65,-99.99,,,-99.99,meteohub,2013-03-27 03:02:00,
2013-03-27 04:18:00,25.7,15.6,28.11,ENE,68,3.0,8.0,65,-99.99,,,-99.99,meteohub,2013-03-27 03:18:00,
2013-03-27 04:33:00,26.1,15.6,28.11,NE,45,2.0,6.0,64,-99.99,,,-99.99,meteohub,2013-03-27 03:33:00,
2013-03-27 04:48:00,25.7,15.3,28.11,NE,45,3.0,8.0,64,-99.99,,,-99.99,meteohub,2013-03-27 03:48:00,
2013-03-27 05:03:00,26.1,15.6,28.10,NE,45,4.0,6.0,64,-99.99,,,-99.99,meteohub,2013-03-27 04:03:00,
2013-03-27 05:17:00,25.7,15.3,28.10,ENE,68,9.0,9.0,64,-99.99,,,-99.99,meteohub,2013-03-27 04:17:00,
2013-03-27 05:32:00,25.7,15.3,28.10,NE,45,9.0,9.0,64,-99.99,,,-99.99,meteohub,2013-03-27 04:32:00,
2013-03-27 05:47:00,25.5,15.1,28.11,NE,45,11.0,12.0,64,-99.99,,,-99.99,meteohub,2013-03-27 04:47:00,
2013-03-27 06:02:00,25.7,15.6,28.11,ENE,68,12.0,12.0,65,-99.99,,,-99.99,meteohub,2013-03-27 05:02:00,
2013-03-27 06:17:00,25.5,15.4,28.11,NNE,23,7.0,13.0,65,-99.99,,,-99.99,meteohub,2013-03-27 05:17:00,
2013-03-27 06:32:00,25.5,15.8,28.11,East,90,7.0,13.0,66,-99.99,,,-99.99,meteohub,2013-03-27 05:32:00,
2013-03-27 06:47:00,25.7,16.5,28.11,ENE,68,9.0,11.0,68,-99.99,,,-99.99,meteohub,2013-03-27 05:47:00,
2013-03-27 07:02:00,25.5,17.1,28.11,ENE,68,5.0,9.0,70,-99.99,,,-99.99,meteohub,2013-03-27 06:02:00,
2013-03-27 07:17:00,25.7,17.6,28.12,ENE,68,4.0,6.0,71,-99.99,,,-99.99,meteohub,2013-03-27 06:17:00,
2013-03-27 07:32:00,26.1,18.0,28.12,SE,135,4.0,9.0,71,-99.99,,,-99.99,meteohub,2013-03-27 06:32:00,
2013-03-27 07:47:00,26.2,17.4,28.12,ENE,68,7.0,8.0,69,-99.99,,,-99.99,meteohub,2013-03-27 06:47:00,
2013-03-27 08:02:00,26.4,18.0,28.12,ENE,68,9.0,10.0,70,-99.99,,,-99.99,meteohub,2013-03-27 07:02:00,
2013-03-27 08:17:00,26.2,18.9,28.12,NW,315,6.0,9.0,73,-99.99,,,-99.99,meteohub,2013-03-27 07:17:00,
2013-03-27 08:32:00,26.4,19.6,28.12,ESE,113,9.0,9.0,75,-99.99,,,-99.99,meteohub,2013-03-27 07:32:00,
2013-03-27 08:47:00,26.8,20.3,28.12,NE,45,8.0,9.0,76,-99.99,,,-99.99,meteohub,2013-03-27 07:47:00,
2013-03-27 09:02:00,26.8,20.5,28.13,East,90,4.0,9.0,77,-99.99,,,-99.99,meteohub,2013-03-27 08:02:00,
2013-03-27 09:17:00,27.5,21.6,28.13,NE,45,9.0,9.0,78,-99.99,,,-99.99,meteohub,2013-03-27 08:17:00,
2013-03-27 09:32:00,27.5,21.2,28.13,NNE,23,8.0,9.0,77,-99.99,,,-99.99,meteohub,2013-03-27 08:32:00,
2013-03-27 09:47:00,27.7,21.7,28.14,ENE,68,7.0,9.0,78,-99.99,,,-99.99,meteohub,2013-03-27 08:47:00,
2013-03-27 10:02:00,27.7,21.4,28.13,ESE,113,7.0,8.0,77,-99.99,,,-99.99,meteohub,2013-03-27 09:02:00,
2013-03-27 10:17:00,27.9,21.2,28.14,SE,135,9.0,11.0,76,-99.99,,,-99.99,meteohub,2013-03-27 09:17:00,
2013-03-27 10:32:00,28.2,21.6,28.14,ESE,113,6.0,11.0,76,-99.99,,,-99.99,meteohub,2013-03-27 09:32:00,
2013-03-27 10:47:00,28.4,21.7,28.14,SE,135,3.0,8.0,76,-99.99,,,-99.99,meteohub,2013-03-27 09:47:00,
2013-03-27 11:02:00,28.6,21.9,28.14,East,90,6.0,9.0,76,-99.99,,,-99.99,meteohub,2013-03-27 10:02:00,
2013-03-27 11:17:00,29.3,22.6,28.14,ESE,113,6.0,10.0,76,-99.99,,,-99.99,meteohub,2013-03-27 10:17:00,
2013-03-27 11:32:00,29.5,22.8,28.14,ESE,113,7.0,8.0,76,-99.99,,,-99.99,meteohub,2013-03-27 10:32:00,
2013-03-27 11:47:00,29.7,22.6,28.14,ENE,68,5.0,9.0,75,-99.99,,,-99.99,meteohub,2013-03-27 10:47:00,
2013-03-27 12:02:00,30.0,23.0,28.15,East,90,5.0,9.0,75,-99.99,,,-99.99,meteohub,2013-03-27 11:02:00,
2013-03-27 12:17:00,30.0,23.4,28.15,ENE,68,7.0,9.0,76,-99.99,,,-99.99,meteohub,2013-03-27 11:17:00,
2013-03-27 12:32:00,30.6,23.9,28.15,SE,135,8.0,8.0,76,-99.99,,,-99.99,meteohub,2013-03-27 11:32:00,
2013-03-27 12:47:00,30.4,23.7,28.15,ESE,113,4.0,10.0,76,-99.99,,,-99.99,meteohub,2013-03-27 11:47:00,
2013-03-27 13:02:00,30.4,24.1,28.15,ESE,113,8.0,8.0,77,-99.99,,,-99.99,meteohub,2013-03-27 12:02:00,
2013-03-27 13:17:00,30.4,24.1,28.16,East,90,8.0,8.0,77,-99.99,,,-99.99,meteohub,2013-03-27 12:17:00,
2013-03-27 13:32:00,30.4,24.3,28.16,East,90,6.0,9.0,78,-99.99,,,-99.99,meteohub,2013-03-27 12:32:00,
2013-03-27 13:47:00,30.4,24.3,28.16,NNW,338,6.0,8.0,78,-99.99,,,-99.99,meteohub,2013-03-27 12:47:00,
2013-03-27 14:02:00,30.4,24.3,28.16,NE,45,5.0,7.0,78,-99.99,,,-99.99,meteohub,2013-03-27 13:02:00,
2013-03-27 14:17:00,30.6,24.8,28.16,ENE,68,4.0,7.0,79,-99.99,,,-99.99,meteohub,2013-03-27 13:17:00,
2013-03-27 14:32:00,30.7,24.6,28.16,NW,315,6.0,6.0,78,-99.99,,,-99.99,meteohub,2013-03-27 13:32:00,
2013-03-27 14:47:00,30.7,25.0,28.17,ENE,68,5.0,10.0,79,-99.99,,,-99.99,meteohub,2013-03-27 13:47:00,
2013-03-27 15:02:00,30.7,24.6,28.17,ESE,113,5.0,7.0,78,-99.99,,,-99.99,meteohub,2013-03-27 14:02:00,
2013-03-27 15:17:00,30.7,24.6,28.17,East,90,10.0,10.0,78,-99.99,,,-99.99,meteohub,2013-03-27 14:17:00,
2013-03-27 15:32:00,30.7,24.6,28.17,ESE,113,4.0,10.0,78,-99.99,,,-99.99,meteohub,2013-03-27 14:32:00,
2013-03-27 15:47:00,30.4,25.0,28.17,ESE,113,6.0,8.0,80,-99.99,,,-99.99,meteohub,2013-03-27 14:47:00,
2013-03-27 16:02:00,30.4,25.0,28.17,East,90,2.0,10.0,80,-99.99,,,-99.99,meteohub,2013-03-27 15:02:00,
2013-03-27 16:17:00,30.4,25.0,28.17,East,90,5.0,9.0,80,-99.99,,,-99.99,meteohub,2013-03-27 15:17:00,
2013-03-27 16:32:00,29.8,24.8,28.17,ENE,68,6.0,8.0,81,-99.99,,,-99.99,meteohub,2013-03-27 15:32:00,
2013-03-27 16:47:00,29.8,25.0,28.17,East,90,4.0,9.0,82,-99.99,,,-99.99,meteohub,2013-03-27 15:47:00,
2013-03-27 17:02:00,29.7,24.8,28.17,East,90,8.0,8.0,82,-99.99,,,-99.99,meteohub,2013-03-27 16:02:00,
2013-03-27 17:17:00,29.5,25.0,28.17,East,90,5.0,8.0,83,-99.99,,,-99.99,meteohub,2013-03-27 16:17:00,
2013-03-27 17:32:00,29.3,24.8,28.17,ENE,68,4.0,9.0,83,-99.99,,,-99.99,meteohub,2013-03-27 16:32:00,
2013-03-27 17:47:00,29.1,24.6,28.16,ENE,68,5.0,9.0,83,-99.99,,,-99.99,meteohub,2013-03-27 16:47:00,
2013-03-27 18:02:00,28.9,24.8,28.17,East,90,5.0,6.0,84,-99.99,,,-99.99,meteohub,2013-03-27 17:02:00,
2013-03-27 18:17:00,28.9,25.0,28.17,ESE,113,6.0,8.0,85,-99.99,,,-99.99,meteohub,2013-03-27 17:17:00,
2013-03-27 18:32:00,28.8,24.8,28.18,NW,315,4.0,7.0,85,-99.99,,,-99.99,meteohub,2013-03-27 17:32:00,
2013-03-27 18:47:00,28.6,24.6,28.18,NNE,23,8.0,9.0,85,-99.99,,,-99.99,meteohub,2013-03-27 17:47:00,
2013-03-27 19:02:00,28.4,24.8,28.18,NNE,23,4.0,8.0,86,-99.99,,,-99.99,meteohub,2013-03-27 18:02:00,
2013-03-27 19:17:00,28.4,24.8,28.18,ENE,68,4.0,6.0,86,-99.99,,,-99.99,meteohub,2013-03-27 18:17:00,
2013-03-27 19:32:00,28.6,25.0,28.18,ENE,68,4.0,6.0,86,-99.99,,,-99.99,meteohub,2013-03-27 18:32:00,
2013-03-27 19:47:00,28.2,24.8,28.18,ENE,68,6.0,6.0,87,-99.99,,,-99.99,meteohub,2013-03-27 18:47:00,
2013-03-27 20:02:00,28.6,25.2,28.18,ENE,68,3.0,6.0,87,-99.99,,,-99.99,meteohub,2013-03-27 19:02:00,
2013-03-27 20:17:00,28.4,25.0,28.18,ESE,113,5.0,5.0,87,-99.99,,,-99.99,meteohub,2013-03-27 19:17:00,
2013-03-27 20:32:00,28.6,25.2,28.18,ENE,68,3.0,5.0,87,-99.99,,,-99.99,meteohub,2013-03-27 19:32:00,
2013-03-27 20:47:00,28.4,25.0,28.19,NE,45,3.0,4.0,87,-99.99,,,-99.99,meteohub,2013-03-27 19:47:00,
2013-03-27 21:02:00,28.4,25.0,28.19,NNE,23,2.0,3.0,87,-99.99,,,-99.99,meteohub,2013-03-27 20:02:00,
2013-03-27 21:17:00,28.4,25.0,28.18,North,0,2.0,3.0,87,-99.99,,,-99.99,meteohub,2013-03-27 20:17:00,
2013-03-27 21:32:00,28.6,25.2,28.18,ENE,68,3.0,3.0,87,-99.99,,,-99.99,meteohub,2013-03-27 20:32:00,
2013-03-27 21:47:00,28.2,24.8,28.17,ENE,68,2.0,3.0,87,-99.99,,,-99.99,meteohub,2013-03-27 20:47:00,
2013-03-27 22:02:00,28.2,24.8,28.17,NNE,23,3.0,4.0,87,-99.99,,,-99.99,meteohub,2013-03-27 21:02:00,
2013-03-27 22:17:00,28.2,24.8,28.17,ENE,68,3.0,3.0,87,-99.99,,,-99.99,meteohub,2013-03-27 21:17:00,
2013-03-27 22:32:00,28.2,24.8,28.17,ENE,68,3.0,3.0,87,-99.99,,,-99.99,meteohub,2013-03-27 21:32:00,
2013-03-27 22:47:00,28.2,24.8,28.18,ENE,68,0.0,3.0,87,-99.99,,,-99.99,meteohub,2013-03-27 21:47:00,
2013-03-27 23:02:00,28.2,24.8,28.17,ENE,68,0.0,2.0,87,-99.99,,,-99.99,meteohub,2013-03-27 22:02:00,
2013-03-27 23:17:00,28.0,24.6,28.17,NNE,23,0.0,2.0,87,-99.99,,,-99.99,meteohub,2013-03-27 22:17:00,
2013-03-27 23:32:00,28.2,24.8,28.17,NE,45,0.0,0.0,87,-99.99,,,-99.99,meteohub,2013-03-27 22:32:00,
2013-03-27 23:47:00,28.2,24.8,28.17,NNE,23,0.0,0.0,87,-99.99,,,-99.99,meteohub,2013-03-27 22:47:00,